EN

Hourly Weather Amanalco de Becerra

Today, 19 January, Tuesday

Time Temperature Precipitation Wind Pressure Humidity
00:00 +9°C° 0 mm 1 mps 551 mmHg 87%
01:00 +9°C° 0 mm 1 mps 551 mmHg 87%
02:00 +8°C° 0 mm 1 mps 551 mmHg 88%
03:00 +8°C° 0 mm 1 mps 551 mmHg 88%
04:00 +8°C° 0 mm 1 mps 551 mmHg 87%
05:00 +8°C° 0 mm 1 mps 551 mmHg 87%
06:00 +9°C° 0 mm 1 mps 552 mmHg 81%
07:00 +11°C° 0 mm 1 mps 553 mmHg 76%
08:00 +12°C° 0 mm 1 mps 554 mmHg 71%
09:00 +15°C° 0 mm 1 mps 555 mmHg 62%
10:00 +18°C° 0 mm 1 mps 556 mmHg 52%
11:00 +20°C° 0 mm 1 mps 557 mmHg 43%
12:00 +19°C° 0.3 mm 2 mps 556 mmHg 46%
13:00 +18°C° 0.3 mm 2 mps 555 mmHg 50%
14:00 +18°C° 0.3 mm 2 mps 555 mmHg 53%
15:00 +16°C° 0.4 mm 2 mps 554 mmHg 59%
16:00 +15°C° 0.4 mm 1 mps 553 mmHg 65%
17:00 +14°C° 0.4 mm 1 mps 553 mmHg 71%
18:00 +13°C° 0 mm 1 mps 553 mmHg 74%
19:00 +12°C° 0 mm 1 mps 553 mmHg 77%
20:00 +11°C° 0 mm 1 mps 553 mmHg 80%
21:00 +11°C° 0 mm 1 mps 553 mmHg 79%
22:00 +10°C° 0 mm 1 mps 553 mmHg 78%
23:00 +10°C° 0 mm 1 mps 553 mmHg 77%

Tomorrow, 20 January, Wednesday

Time Temperature Precipitation Wind Pressure Humidity
00:00 +10°C° 0 mm 1 mps 553 mmHg 78%
01:00 +10°C° 0 mm 1 mps 553 mmHg 79%
02:00 +9°C° 0 mm 1 mps 553 mmHg 80%
03:00 +9°C° 0 mm 1 mps 553 mmHg 81%
04:00 +9°C° 0 mm 1 mps 553 mmHg 82%
05:00 +9°C° 0 mm 1 mps 553 mmHg 83%
06:00 +10°C° 0 mm 1 mps 554 mmHg 80%
07:00 +11°C° 0 mm 1 mps 555 mmHg 77%
08:00 +12°C° 0 mm 1 mps 555 mmHg 74%
09:00 +14°C° 0 mm 1 mps 556 mmHg 65%
10:00 +16°C° 0 mm 1 mps 557 mmHg 55%
11:00 +19°C° 0 mm 1 mps 558 mmHg 46%
12:00 +18°C° 0 mm 2 mps 557 mmHg 45%
13:00 +18°C° 0 mm 2 mps 557 mmHg 44%
14:00 +18°C° 0 mm 3 mps 556 mmHg 43%
15:00 +17°C° 0.1 mm 2 mps 555 mmHg 52%
16:00 +15°C° 0.1 mm 2 mps 554 mmHg 60%
17:00 +14°C° 0.1 mm 1 mps 553 mmHg 68%
18:00 +13°C° 0.1 mm 1 mps 554 mmHg 73%
19:00 +12°C° 0.1 mm 1 mps 554 mmHg 78%
20:00 +11°C° 0.1 mm 1 mps 554 mmHg 83%
21:00 +10°C° 0 mm 1 mps 554 mmHg 84%
22:00 +10°C° 0 mm 1 mps 554 mmHg 85%
23:00 +10°C° 0 mm 1 mps 554 mmHg 86%

Day after tomorrow, 21 January, Thursday

Time Temperature Precipitation Wind Pressure Humidity
00:00 +9°C° 0 mm 1 mps 554 mmHg 87%
01:00 +9°C° 0 mm 1 mps 553 mmHg 88%
02:00 +9°C° 0 mm 1 mps 553 mmHg 88%
03:00 +9°C° 0 mm 1 mps 553 mmHg 88%
04:00 +8°C° 0 mm 1 mps 553 mmHg 88%
05:00 +8°C° 0 mm 1 mps 553 mmHg 87%
06:00 +10°C° 0 mm 1 mps 554 mmHg 81%
07:00 +11°C° 0 mm 1 mps 555 mmHg 74%
08:00 +12°C° 0 mm 0 mps 556 mmHg 68%
09:00 +15°C° 0 mm 1 mps 557 mmHg 57%
10:00 +18°C° 0 mm 1 mps 557 mmHg 47%
11:00 +19°C° 0 mm 2 mps 558 mmHg 36%
12:00 +19°C° 0 mm 2 mps 557 mmHg 36%
13:00 +19°C° 0 mm 3 mps 556 mmHg 36%
14:00 +19°C° 0 mm 3 mps 556 mmHg 36%
15:00 +18°C° 0 mm 3 mps 555 mmHg 42%
16:00 +16°C° 0 mm 2 mps 554 mmHg 48%
17:00 +15°C° 0 mm 2 mps 553 mmHg 54%
18:00 +13°C° 0 mm 1 mps 553 mmHg 59%
19:00 +12°C° 0 mm 1 mps 552 mmHg 64%
20:00 +10°C° 0 mm 1 mps 552 mmHg 69%
21:00 +10°C° 0 mm 1 mps 552 mmHg 69%
22:00 +10°C° 0 mm 1 mps 552 mmHg 69%
23:00 +9°C° 0 mm 1 mps 552 mmHg 68%

22 January, Friday

Time Temperature Precipitation Wind Pressure Humidity
00:00 +9°C° 0 mm 1 mps 552 mmHg 67%
01:00 +9°C° 0 mm 1 mps 551 mmHg 65%
02:00 +9°C° 0 mm 1 mps 551 mmHg 64%
03:00 +9°C° 0 mm 1 mps 551 mmHg 63%
04:00 +8°C° 0 mm 1 mps 551 mmHg 62%
05:00 +8°C° 0 mm 1 mps 551 mmHg 62%
06:00 +10°C° 0 mm 1 mps 553 mmHg 60%
07:00 +12°C° 0 mm 1 mps 554 mmHg 58%
08:00 +13°C° 0 mm 1 mps 555 mmHg 56%
09:00 +15°C° 0 mm 1 mps 556 mmHg 49%
10:00 +19°C° 0 mm 1 mps 557 mmHg 42%
11:00 +21°C° 0 mm 1 mps 558 mmHg 35%
12:00 +21°C° 0 mm 1 mps 557 mmHg 35%
13:00 +20°C° 0 mm 2 mps 556 mmHg 36%
14:00 +20°C° 0 mm 2 mps 555 mmHg 36%
15:00 +18°C° 0 mm 2 mps 554 mmHg 43%
16:00 +17°C° 0 mm 2 mps 553 mmHg 49%
17:00 +15°C° 0 mm 2 mps 553 mmHg 55%
18:00 +14°C° 0 mm 1 mps 552 mmHg 59%
19:00 +13°C° 0 mm 1 mps 552 mmHg 63%
20:00 +11°C° 0 mm 1 mps 552 mmHg 67%
21:00 +11°C° 0 mm 1 mps 552 mmHg 67%
22:00 +11°C° 0 mm 1 mps 552 mmHg 66%
23:00 +11°C° 0 mm 1 mps 552 mmHg 66%

23 January, Saturday

Time Temperature Precipitation Wind Pressure Humidity
00:00 +11°C° 0 mm 1 mps 552 mmHg 66%
01:00 +11°C° 0 mm 1 mps 552 mmHg 65%
02:00 +10°C° 0 mm 1 mps 552 mmHg 65%
03:00 +10°C° 0 mm 1 mps 552 mmHg 66%
04:00 +10°C° 0 mm 1 mps 551 mmHg 68%
05:00 +9°C° 0 mm 1 mps 551 mmHg 69%
06:00 +11°C° 0 mm 1 mps 553 mmHg 64%
07:00 +13°C° 0 mm 1 mps 554 mmHg 60%
08:00 +13°C° 0 mm 0 mps 555 mmHg 55%
09:00 +16°C° 0 mm 1 mps 556 mmHg 48%
10:00 +19°C° 0 mm 1 mps 556 mmHg 42%
11:00 +20°C° 0 mm 2 mps 557 mmHg 35%
12:00 +19°C° 0 mm 2 mps 556 mmHg 36%
13:00 +19°C° 0 mm 2 mps 555 mmHg 38%
14:00 +19°C° 0 mm 2 mps 555 mmHg 39%
15:00 +18°C° 0 mm 2 mps 554 mmHg 44%
16:00 +16°C° 0 mm 2 mps 553 mmHg 49%
17:00 +15°C° 0 mm 1 mps 553 mmHg 54%
18:00 +14°C° 0 mm 1 mps 553 mmHg 58%
19:00 +13°C° 0 mm 1 mps 552 mmHg 61%
20:00 +11°C° 0 mm 1 mps 552 mmHg 65%
21:00 +11°C° 0 mm 1 mps 552 mmHg 65%
22:00 +11°C° 0 mm 1 mps 552 mmHg 65%
23:00 +10°C° 0 mm 1 mps 552 mmHg 65%

24 January, Sunday

Time Temperature Precipitation Wind Pressure Humidity
00:00 +10°C° 0 mm 1 mps 552 mmHg 65%
01:00 +10°C° 0 mm 1 mps 551 mmHg 65%
02:00 +10°C° 0 mm 1 mps 551 mmHg 65%
03:00 +9°C° 0 mm 1 mps 551 mmHg 65%
04:00 +9°C° 0 mm 1 mps 551 mmHg 66%
05:00 +9°C° 0 mm 1 mps 551 mmHg 66%
06:00 +11°C° 0 mm 1 mps 552 mmHg 61%
07:00 +11°C° 0 mm 0 mps 554 mmHg 56%
08:00 +13°C° 0 mm 0 mps 555 mmHg 51%
09:00 +16°C° 0 mm 1 mps 556 mmHg 45%
10:00 +19°C° 0 mm 1 mps 556 mmHg 40%
11:00 +20°C° 0 mm 2 mps 557 mmHg 34%
12:00 +20°C° 0 mm 2 mps 556 mmHg 34%
13:00 +19°C° 0 mm 2 mps 555 mmHg 35%
14:00 +19°C° 0 mm 3 mps 554 mmHg 36%
15:00 +18°C° 0 mm 3 mps 553 mmHg 42%
16:00 +16°C° 0 mm 2 mps 553 mmHg 48%
17:00 +15°C° 0 mm 2 mps 552 mmHg 54%
18:00 +13°C° 0 mm 2 mps 552 mmHg 57%
19:00 +12°C° 0 mm 1 mps 551 mmHg 61%
20:00 +10°C° 0 mm 1 mps 551 mmHg 65%
21:00 +10°C° 0 mm 1 mps 551 mmHg 66%
22:00 +10°C° 0 mm 1 mps 551 mmHg 68%
23:00 +9°C° 0 mm 1 mps 551 mmHg 69%
Show more